WB2CMF Weather Reports


time (UTC)temp
C
wind
direction
speed
KPH
gust
KPH
rain 1hr
cm
rain 24hr
cm
rain mn
cm
humidity
%
barometer
mb
20260504213012 15 222 8.0 14.5 0.00 0.00 0.00 49 1011.1
20260504210011 16 179 11.3 17.7 0.00 0.00 0.00 47 1011.1
20260504203012 16 198 4.8 19.3 0.00 0.00 0.00 45 1010.9
20260504200011 17 141 6.4 19.3 0.00 0.00 0.00 42 1011.0
20260504193011 17 271 6.4 19.3 0.00 0.00 0.00 41 1011.1
20260504190011 17 206 12.9 20.9 0.00 0.00 0.00 39 1011.4
20260504183011 18 211 4.8 19.3 0.00 0.00 0.00 38 1011.7
20260504180011 18 198 8.0 16.1 0.00 0.00 0.00 39 1012.0
20260504173011 17 178 4.8 17.7 0.00 0.00 0.00 40 1012.0
20260504050010 6 336 0.0 0.0 0.00 0.00 0.00 52 1012.4
20260504043009 6 336 0.0 0.0 0.00 0.00 0.00 48 1012.3
20260504040009 7 336 0.0 0.0 0.00 0.00 0.00 44 1012.5
20260504033009 7 336 0.0 0.0 0.00 0.00 0.00 42 1012.3
20260504030009 7 336 0.0 0.0 0.00 0.00 0.00 41 1012.3
20260504023009 8 336 0.0 0.0 0.00 0.00 0.00 39 1012.2
20260504020009 8 336 0.0 0.0 0.00 0.00 0.00 38 1012.1
20260504013009 9 336 0.0 0.0 0.00 0.00 0.00 34 1012.0
20260504010009 10 336 0.0 0.0 0.00 0.00 0.00 31 1011.7
20260504003009 12 336 0.0 1.6 0.00 0.00 0.00 24 1010.8
20260504000009 13 169 0.0 8.0 0.00 0.00 0.00 21 1010.5
20260503233009 13 202 0.0 9.7 0.00 0.00 0.00 20 1010.2
20260503230009 13 349 0.0 11.3 0.00 0.00 0.00 20 1010.1
20260503220009 14 309 1.6 12.9 0.00 0.00 0.00 20 1009.7